Location: Ajisawe
(8.4333°N, 4.3833°E)
Time: 22:43:53
(UTC+00:00)

Vanguard 1 Rocket - Pass Details

Date: 25 April 2021
Orbit: 652 x 4224 km, 34.3° (Epoch: 10 May)

Event Time Altitude Azimuth Distance (km) Brightness Sun altitude
Rises 21:14:03 0° 267° (W) 4,076 11.3 -47.6°
Reaches altitude 10° 21:17:07 10° 252° (WSW) 3,497 10.7 -48.2°
Enters shadow 21:20:05 19° 233° (SW) 3,241 10.2 -48.9°
